Погода в Лягушье

Россия / Новосибирская область     54°24′07″N   77°59′24″E
темп.,
°C
ветер,
м/с
пор.,
м/с
влажн.,
%
обл.,
%
осадки,
мм/ч
давл.,
гПа
погр.,
м
24 июля, сб
сб2401:00+18ссв2276100 0.0 100612
04:00+18ссз1176100 0.0 100611
07:00+18св2278100 0.0 100716
10:00+20с2373100 0.0 1006162
13:00+23сз326462 0.0 1007540
16:00+24ссз225862 0.0 1006694
19:00+24сз3358100 0.0 1007276
22:00+20с226655 0.0 100711
25 июля, вс
вс2501:00+19в117224 0.0 100711
04:00+17ю11820 0.0 100611
07:00+18ююз11820 0.0 100611
10:00+21вюв227125 0.0 1006265
13:00+24в1258100 0.0 1005994
16:00+25св1253100 0.0 10041174
19:00+26юв13505 0.0 10031089
22:00+22вюв336036 0.0 100119
26 июля, пн
пн2601:00+21юв4658100 0.1 99977
04:00+18зюз48780 0.1 999145
07:00+17з81386100 0.1 1000511
10:00+17з81388100 0.1 1001609
13:00+16зсз101478100 0.1 1003696
16:00+17зсз71270100 0.0 1005918
19:00+16сз10147318 0.1 1007716
22:00+13зсз71276100 0.0 1008488
27 июля, вт
вт2701:00+12з48725 0.0 1009181
04:00+11з512765 0.0 1009263
07:00+12з4976100 0.0 1010216
10:00+13з5869100 0.0 1011347
13:00+15зсз5757100 0.0 1011842
16:00+16зсз575291 0.0 10111143
19:00+17зсз464868 0.0 10111169
22:00+15з2359100 0.0 101228
28 июля, ср
ср2801:00+12зюз45695 0.0 101255
04:00+11зюз34745 0.0 101249
07:00+12юз357696 0.0 101278
10:00+13ююз467071 0.0 1012143
13:00+17юз565999 0.0 1012425
16:00+19ююз4549100 0.0 10111454
19:00+18зюз235220 0.0 1011457
22:00+15ю34675 0.0 101224